Location: Chin
(49.7667°N, 112.4500°W)
Time: 12:49:27
(UTC+00:00)

N. Korean satellite - Pass Details

Date: 03 December 2021
Orbit: 447 x 490 km, 97.3° (Epoch: 27 January)

Event Time Altitude Azimuth Distance (km) Brightness Sun altitude
Rises 13:07:08 0° 10° (N) 2,475 10.1 -18.7°
Reaches altitude 10° 13:09:11 10° 7° (N) 1,593 9.1 -18.4°
Maximum altitude 13:12:34 62° 286° (WNW) 510 6.3 -17.9°
Drops below altitude 10° 13:15:53 10° 205° (SSW) 1,572 9.0 -17.3°
Sets 13:17:55 0° 202° (SSW) 2,439 10.1 -17.0°
